Starlink 33848

operational
NORAD ID: 63705 Int'l Des: 2025-087 Owner: SPXS Country: US Constellation: starlink
LEOCIRCULAR

About Starlink 33848

Description loading...

Live Position

Loading 3D Globe...

Upcoming Passes

Altitude History

Altitude vs Time

uPlot chart will show altitude changes over time

Two-Line Element Set

1 63705U 25087J 25306.14194477 .00026998 00000-0 92021-3 0 9997
2 63705 53.1575 91.8460 0001580 94.2883 265.8299 15.30205365 29669
Epoch: Nov 2, 2025 • Age: 40 hours

Current Status

Altitude 482.0 km
Velocity 7.62 km/s
Sub-Earth Point -23.44°S, 52.97°W
Launch Date Apr 28, 2025
Age 0.5 years
Type internet

Technical Details

Classification Payload
Mass 575.00 kg
Dry Mass 530.00 kg
Total Mass 575.00 kg
Length 0.30 m
Diameter 4.10 m
Span 29.00 m
Shape Box + pan
Manufacturer SPXS
Bus Type Starlink V2MO
Phase Status In Orbit
Owner/State SPXS/US

Large Constellations

Loading constellations...